Weather History for Santa Maria, CA

Change the Weather History Date:

Sunday, November 11, 2012

  Actual Average Record
Temperature  
Mean Temperature 51 °F 57 °F  
Max Temperature 67 °F 70 °F 86 °F (1990)
Min Temperature 34 °F 44 °F 26 °F (1938)
Degree Days  
Heating Degree Days 14 8  
Month to date heating degree days 73 83  
Since 1 July heating degree days 331 447  
Cooling Degree Days 0 0  
Month to date cooling degree days 16 0  
Year to date cooling degree days 120 100  
Moisture  
Dew Point 34 °F    
Average Humidity 54    
Maximum Humidity 92    
Minimum Humidity 16    
Precipitation  
Precipitation 0.00 in 0.04 in 0.75 in (1964)
Month to date precipitation 0.11 0.43  
Year to date precipitation 7.56 10.93  
Since 1 July precipitation 0.36 1.22  
Sea Level Pressure  
Sea Level Pressure 30.30 in    
Wind  
Wind Speed 4 mph (NW)    
Max Wind Speed 17 mph    
Max Gust Speed 23 mph    
Visibility 10 miles    
Events      
T = Trace of Precipitation, MM = Missing Value Source: NWS Daily Summary

Daily Weather History Graph

Daily Weather History Graph

Search for Another Location

Airport:

Trip Planner

Search our weather history database for the weather conditions in past years. The results will help you decide how hot, cold, wet, or windy it might be!

Date:

Astronomy

Nov. 11, 2012 Rise Set
Actual Time 6:32 AM PST 4:58 PM PST
Civil Twilight 6:06 AM PST 5:25 PM PST
Nautical Twilight 5:35 AM PST 5:55 PM PST
Astronomical Twilight 5:05 AM PST 6:25 PM PST
Moon 3:57 AM PST (11/11) 3:22 PM PST (11/11)
Length of Visible Light 11h 19m
Length of Day
10h 25m
Waning Crescent, 6% of the Moon is Illuminated
Nov 11
Waning Crescent
Nov 13
New
Nov 20
First Quarter
Nov 28
Full
Dec 6
Last Quarter

Hourly Weather History & Observations

Time (PST) Temp. Windchill Dew Point Humidity Pressure Visibility Wind Dir Wind Speed Gust Speed Precip Events Conditions
12:51 AM 39.9 °F - 37.0 °F 89% 30.25 in 10.0 mi Calm Calm - N/A   Clear
1:51 AM 39.0 °F - 36.0 °F 89% 30.26 in 10.0 mi Calm Calm - N/A   Clear
2:51 AM 37.9 °F - 35.1 °F 89% 30.27 in 10.0 mi Calm Calm - N/A   Clear
3:51 AM 36.0 °F - 34.0 °F 93% 30.28 in 10.0 mi Calm Calm - N/A   Clear
4:51 AM 35.1 °F - 32.0 °F 89% 30.28 in 10.0 mi Calm Calm - N/A   Clear
5:51 AM 35.1 °F - 32.0 °F 89% 30.29 in 10.0 mi Calm Calm - N/A   Clear
6:51 AM 36.0 °F - 32.0 °F 86% 30.31 in 10.0 mi Calm Calm - N/A   Clear
7:51 AM 42.1 °F - 37.0 °F 82% 30.32 in 10.0 mi Calm Calm - N/A   Clear
8:51 AM 50.0 °F - 35.1 °F 57% 30.33 in 10.0 mi North 4.6 mph - N/A   Clear
9:51 AM 55.9 °F - 33.1 °F 42% 30.33 in 10.0 mi Calm Calm - N/A   Clear
10:51 AM 62.1 °F - 25.0 °F 24% 30.31 in 10.0 mi Variable 3.5 mph - N/A   Clear
11:51 AM 64.9 °F - 19.9 °F 18% 30.30 in 10.0 mi ENE 4.6 mph - N/A   Clear
12:51 PM 66.0 °F - 19.0 °F 17% 30.27 in 10.0 mi NNW 4.6 mph - N/A   Clear
1:51 PM 66.0 °F - 28.0 °F 24% 30.27 in 10.0 mi WNW 12.7 mph 18.4 mph N/A   Clear
2:35 PM 62.6 °F - 32.0 °F 32% 30.26 in 10.0 mi WNW 16.1 mph 23.0 mph 0.01 in   Clear
2:51 PM 62.1 °F - 32.0 °F 32% 30.27 in 10.0 mi WNW 17.3 mph - 0.01 in   Clear
3:51 PM 60.1 °F - 39.0 °F 46% 30.28 in 10.0 mi WNW 16.1 mph - N/A   Clear
4:51 PM 55.0 °F - 39.9 °F 57% 30.28 in 10.0 mi West 10.4 mph - N/A   Clear
5:51 PM 53.1 °F - 42.1 °F 66% 30.29 in 10.0 mi WNW 11.5 mph - N/A   Clear
6:51 PM 52.0 °F - 41.0 °F 66% 30.32 in 10.0 mi Calm Calm - N/A   Clear
7:51 PM 46.9 °F - 39.9 °F 77% 30.33 in 10.0 mi ESE 3.5 mph - N/A   Clear
8:51 PM 45.0 °F - 37.9 °F 76% 30.34 in 9.0 mi Calm Calm - N/A   Clear
9:51 PM 43.0 °F 41.3 °F 37.0 °F 80% 30.34 in 10.0 mi SSE 3.5 mph - N/A   Clear
10:51 PM 43.0 °F 41.3 °F 37.0 °F 80% 30.33 in 10.0 mi SSE 3.5 mph - N/A   Clear
11:51 PM 41.0 °F - 36.0 °F 82% 30.33 in 10.0 mi Calm Calm - N/A   Clear